Regional Weather Roundup
Issued by NWS

Home | Current Version | Previous Version | Text Only | Print | Product List | Glossary On
Versions: 1 2 3 4 5 6 7 8 9 10 11 12 13 14 15 16 17 18 19 20 21 22 23 24 25 26 27 28 29 30 31 32 33 34 35 36 37 38 39 40 41 42 43 44 45 46 47 48 49 50
000
ASUS42 KTBW 211019
RWRFL
FLORIDA REGIONAL WEATHER ROUNDUP
NATIONAL WEATHER SERVICE TAMPA BAY RUSKIN FL
600 AM EDT SAT OCT 21 2017

NOTE: "FAIR" INDICATES FEW OR NO CLOUDS BELOW 12,000 FEET WITH NO
SIGNIFICANT WEATHER AND/OR OBSTRUCTIONS TO VISIBILITY.

FLZ001>010-012>015-112-114-115-211100-
PANHANDLE FLORIDA

CITY           SKY/WX    TMP DP  RH WIND       PRES   REMARKS
PENSACOLA      CLOUDY    73  66  78 E9        30.08R
PENSACOLA NAS  CLOUDY    73  68  84 E7        30.06S
MILTON NAS     PTCLDY    65  63  93 E8        30.10
CRESTVIEW      CLOUDY    63  58  83 CALM      30.14R
DUKE FIELD     MOCLDY    67  61  83 E7          N/A
VALPARAISO     MOCLDY    69  63  81 E5        30.11R
MARY ESTHER    CLEAR     71  66  84 E10       30.09R
PANAMA CITY    FAIR      68  64  87 NE7       30.11S
TYNDALL AFB    CLOUDY    68  65  90 E7        30.12R
APALACHICOLA   PTCLDY    68  68 100 NE7       30.11R

STATION/POSITION SKY/WX   TEMP    WIND        PRES    WAVE   SWELL
                          AIR SEA DIR/SP/G            HT/PER HT/PER
                          (F)     (DEG/KT/KT) (MB)    (FT/S) (FT/S)
30.1N   87.6W              79 79  110/ 19/ 21 1016.8F   5/ 6
29.2N   88.2W              81 81  110/ 17/ 21 1016.5
28.8N   86.0W              80 81  110/ 17/ 21 1017.5R   6/ 6
PANAMA CITY BEAC           70 77  100/ 10/ 15 1020.1R
TOWER C                    77     110/ 18/ 19 1019.9R
28.5N   84.5W              78 80  100/ 17/ 19 1017.8R   5/ 6

$$
FLZ011-016>038-118-127-128-134-139-239-211100-
NORTH FLORIDA

CITY           SKY/WX    TMP DP  RH WIND       PRES   REMARKS
MARIANNA       CLOUDY    64  62  93 E5        30.14S
TALLAHASSEE    MOCLDY    68  66  93 E7        30.15R
PERRY          CLOUDY    66  65  94 CALM      30.15R
LIVE OAK       CLEAR     66  66 100 NE6       30.16R
CROSS CITY     CLEAR     66  65  97 NE3       30.18R
LAKE CITY      FAIR      61  61 100 NE6       30.15R
GAINESVILLE    CLEAR     66  65  96 NE5       30.16R
WILLISTON      CLEAR     68  68 100 CALM      30.13R
PALATKA        CLOUDY    66  66 100 NE5       30.13S
MAYPORT NAS    PTCLDY    77  66  68 E13       30.15R
JACKSONVILLE   PTCLDY    70  69  97 CALM      30.15R
JAX NAS        PTCLDY    74  68  81 NE6       30.15R
JAX CECIL      PTCLDY    63  63 100 CALM      30.15R FOG
ST AUGUSTINE   PTCLDY    76  64  66 E9        30.15R
PALM COAST     CLEAR     75  64  69 E10       30.12S

STATION/POSITION SKY/WX   TEMP    WIND        PRES    WAVE   SWELL
                          AIR SEA DIR/SP/G            HT/PER HT/PER
                          (F)     (DEG/KT/KT) (MB)    (FT/S) (FT/S)
SHELL POINT      NOT AVBL
KEATON BEACH               66      50/  6/  8 1020.1R
CEDAR KEY                  70      40/  8/ 11 1020.0R
FERNANDINA                 77 75   60/  4/  8 1021.7R
30.7N   81.3W                 77                N/A     4/ 5
MAYPORT                    77 77  110/  6/  9 1021.2R
31.4N   80.9W              77 77  110/ 10/ 14 1021.7R   4/ 8   3/ 8
ST AUGUSTINE               78 77   90/ 14/ 16 1020.7R

$$
FLZ040-043>046-052-053-057-058-063-144-211100-
INTERIOR CENTRAL FLORIDA

CITY           SKY/WX    TMP DP  RH WIND       PRES   REMARKS
OCALA          PTCLDY    65  64  97 CALM      30.13R
THE VILLAGES     N/A     70  70 100 CALM      30.01S
LEESBURG       CLEAR     73  70  90 NE8       30.11R
SANFORD        CLEAR     71  68  90 NE5       30.10R
ORLANDO INTL   PTCLDY    71  68  90 NE6       30.10R
KISSIMMEE      PTCLDY    72  69  90 NE5       30.10R
WINTER HAVEN     N/A    N/A N/A N/A MISG      30.09S
LAKELAND       PTCLDY    72  70  94 NE6       30.08S
BARTOW         FAIR      70  70 100 NE6       30.09R
SEBRING        FAIR      72  67  85 NE7       30.06S
OKEECHOBEE     CLOUDY    70  66  88 NE3       30.05R

$$
FLZ041-047-054-059-064-141-147-211100-
EAST CENTRAL FLORIDA

CITY           SKY/WX    TMP DP  RH WIND       PRES   REMARKS
DAYTONA BEACH  MOCLDY    76  71  85 E10       30.11R
DELAND         MOCLDY    72  68  88 E6        30.11R
JFK SPACE CTR  CLEAR     77  68  74 E10       30.09R
CAPE CANAVERAL CLEAR     78  63  61 E10       30.08R
PATRICK AFB    CLEAR     78  67  67 E16       30.08R
MELBOURNE      MOCLDY    79  66  64 E16       30.08R
VERO BEACH     CLEAR     77  65  66 E13       30.07R
FT PIERCE      MOCLDY    78  69  73 E12       30.06R
STUART         PTCLDY    81  72  74 E15G23    30.06R

STATION/POSITION SKY/WX   TEMP    WIND        PRES    WAVE   SWELL
                          AIR SEA DIR/SP/G            HT/PER HT/PER
                          (F)     (DEG/KT/KT) (MB)    (FT/S) (FT/S)
28.5N   80.2W              80 81   80/ 14/ 17 1019.0
TRIDENT PIER               78 81   70/ 10/ 15 1020.5R
28.4N   80.5W                 80                N/A     4/ 8
27.5N   80.2W                 80                N/A     7/ 8

$$
FLZ050-056-061-142-242-148-248-149-249-151-251-155-255-
160-260-211100-
WEST CENTRAL FLORIDA

CITY           SKY/WX    TMP DP  RH WIND       PRES   REMARKS
CRYSTAL RIVER  FAIR      64  63  94 CALM      30.11R
INVERNESS      FAIR      66  66 100 CALM      30.11R
BROOKSVILLE    PTCLDY    70  68  93 NE9       30.10R
CLEARWATER AIR FAIR      72  68  88 E5        30.06S
ST PETE CLEARW CLEAR     75  71  87 E9        30.07R
TAMPA INTL     CLEAR     73  68  84 NE5       30.08R
TAMPA EXEC     CLEAR     68  68 100 E5        30.09R
PLANT CITY     PTCLDY    72  70  94 NE6       30.09S
MACDILL AFB    CLEAR     73  70  88 VRB6      30.07S
PETER O KNIGHT CLEAR     70  70 100 NE7       30.07S
ST PETERSBURG  PTCLDY    74  71  91 E16       30.05R
SARASOTA       PTCLDY    72  69  90 E8        30.04R
VENICE           N/A     73  70  88 E9        30.05R

STATION/POSITION SKY/WX   TEMP    WIND        PRES    WAVE   SWELL
                          AIR SEA DIR/SP/G            HT/PER HT/PER
                          (F)     (DEG/KT/KT) (MB)    (FT/S) (FT/S)
CLEARWATER BEACH           74 78   60/  8/ 10 1018.2R
MIDDLE TAMPA BAY           74      80/ 14/ 16 1017.9R
VENICE                     73 81   70/  7/ 10 1017.3R

$$
FLZ066-069-070-075>078-162-262-165-265-211100-
SOUTHWEST FLORIDA AND KEYS

CITY           SKY/WX    TMP DP  RH WIND       PRES   REMARKS
PUNTA GORDA    PTCLDY    71  69  93 NE8       30.05R
FT MYERS       MOCLDY    70  70 100 NE6       30.02R
SOUTHWEST INTL MOCLDY    72  72 100 NE7       30.03R
NAPLES           N/A    N/A N/A N/A MISG      30.00S
MARCO ISLAND     N/A     75  72  88 NE12      30.01S
IMMOKALEE      CLOUDY    72  70  94 NE7       30.04R
MARATHON       PTCLDY    82  73  74 E12       29.96R
KEY WEST NAS   MOCLDY    81  79  94 NE9       29.96R
KEY WEST INTL  MOCLDY    81  76  84 E8        29.96R

STATION/POSITION SKY/WX   TEMP    WIND        PRES    WAVE   SWELL
                          AIR SEA DIR/SP/G            HT/PER HT/PER
                          (F)     (DEG/KT/KT) (MB)    (FT/S) (FT/S)
NAPLES                        81   60/  6/ 11 1015.9R
DRY TORTUGAS               82      80/ 21/ 23 1014.3R
SAND KEY                   82                 1014.5S
MOLASSES REEF              82 83   80/ 16/ 17 1014.8R

$$
FLZ067-068-071>074-168-172>174-211100-
SOUTHEAST FLORIDA

CITY           SKY/WX    TMP DP  RH WIND       PRES   REMARKS
W PALM BEACH   MOCLDY    79  73  82 E18       30.04R
FT LAUDER-EXEC PTCLDY    80  73  79 NE14G24   30.00R
FT LAUDERDALE  CLOUDY    80  76  87 E14G23    29.99R
POMPANO BEACH  MOCLDY    81  32  17 E17G24    30.01R
PEMBROKE PINES CLOUDY    80  75  84 NE10      30.02R
OPA LOCKA      LGT RAIN  79  75  87 E14       30.00R
MIAMI          MOCLDY    82  74  76 E10G22    30.00R
WEST KENDALL   MOCLDY    78  74  87 E13       29.99R
HOMESTEAD      MOCLDY    79  77  94 E13       29.98S

STATION/POSITION SKY/WX   TEMP    WIND        PRES    WAVE   SWELL
                          AIR SEA DIR/SP/G            HT/PER HT/PER
                          (F)     (DEG/KT/KT) (MB)    (FT/S) (FT/S)
PORT EVERGLADES            82      60/ 18/ 24 1015.8R
VIRGINIA KEY               82 83   50/ 15/ 20 1015.2R
LAKE WORTH                 80 81   70/ 20/ 25 1017.7R
FOWEY ROCKS                82 82   70/ 23/ 25 1015.9R
SETTLEMENT POINT           79      70/ 20/ 21 1017.2R

$$




USA.gov is the U.S. government's official web portal to all federal, state and local government web resources and services.